Regional Weather Roundup
Issued by NWS

Home | Current Version | Previous Version | Text Only | Print | Product List | Glossary On
Versions: 1 2 3 4 5 6 7 8 9 10 11 12 13 14 15 16 17 18 19 20 21 22 23 24 25 26 27 28 29 30 31 32 33 34 35 36 37 38 39 40 41 42 43 44 45 46 47 48 49 50
000
ASUS43 KDTX 301101
RWRMI
MICHIGAN HOURLY REGIONAL WEATHER ROUNDUP
NATIONAL WEATHER SERVICE DETROIT/PONTIAC MI
700 AM EDT MON MAR 30 2015

NOTE: "FAIR" INDICATES FEW OR NO CLOUDS BELOW 12,000 FEET WITH NO
SIGNIFICANT WEATHER AND/OR OBSTRUCTION TO VISIBILITY.

MIZ047>049-052>055-059>063-066>070-074>076-081>083-301200-
SOUTHEAST LOWER MICHIGAN

CITY           SKY/WX    TMP DP  RH WIND       PRES   REMARKS
ADRIAN         CLEAR     36  29  75 W9        29.89R WCI  29
ALMA           CLEAR     35  31  86 W7        29.85R WCI  29
ANN ARBOR      PTCLDY    36  29  75 W9        29.86R WCI  29
BAD AXE        PTCLDY    35  30  82 W15G21    29.75R WCI  25
CARO           MOCLDY    35  30  82 W10       29.79R WCI  27
DETROIT CITY   CLOUDY    42  28  57 W15G21    29.84R
DETROIT        CLOUDY    41  30  65 W17G29    29.86R
FLINT          MOCLDY    38  30  73 W14       29.84R WCI  30
GROSSE ILE     CLOUDY    39  30  70 W12G24    29.84R WCI  32
HILLSDALE      CLEAR     35  30  80 W13       29.89R WCI  27
HOWELL         CLEAR     35  30  82 W9        29.85R WCI  28

CITY           SKY/WX    TMP DP  RH WIND       PRES   REMARKS
JACKSON        CLEAR     35  28  75 W12       29.88R WCI  27
LAMBERTVILLE   CLEAR     37  32  81 W10G17    29.89R WCI  30
LANSING        CLEAR     35  28  75 W12       29.88R WCI  27
LAPEER         PTSUNNY   37  29  72 NW10G18   29.81R WCI  30
MASON          CLEAR     34  28  80 W8        29.87R WCI  27
MONROE         PTCLDY    37  30  75 W10       29.86R WCI  30
MT. CLEMENS    CLOUDY    40  29  65 W16G23    29.79R WCI  32
PONTIAC        MOCLDY    37  28  70 W15       29.82R WCI  28
PORT HOPE        N/A     36  30  79 W12G22    29.71R WCI  28
PORT HURON     CLOUDY    39  30  70 W9G21     29.79R WCI  33
TRI CITIES     CLEAR     37  29  72 W10       29.82R WCI  30
TROY           CLOUDY    40  29  64 W13G20    29.85R WCI  33
SAGINAW HB     PTCLDY    36  32  87 W13G20    29.81R WCI  27
$$
MIZ043>046-050>051-056>058-064>065-071>073-077>080-301200-
SOUTHWEST LOWER MICHIGAN

CITY           SKY/WX    TMP DP  RH WIND       PRES   REMARKS
BATTLE CREEK   CLEAR     35  28  75 W8        29.91R WCI  29
BENTON HARBOR  CLEAR     36  31  82 W12       29.96R WCI  28
BIG RAPIDS     CLEAR     34  30  84 W9        29.83R WCI  27
COLDWATER      CLEAR     33  28  81 W8        29.92R WCI  26
FREMONT        FAIR      34  29  80 W8        29.87R WCI  28
HOLLAND        CLEAR     38  31  76 W12       29.93R WCI  30
GRAND RAPIDS   PTCLDY    35  28  75 W12       29.89R WCI  27
IONIA          FAIR      36  29  78 W12       29.87R WCI  27
KALAMAZOO      CLEAR     36  28  73 W9        29.92R WCI  29
LUDINGTON      CLEAR     37  32  83 W6        29.86R WCI  32
MARSHALL       CLEAR     32  27  83 W8        29.90R WCI  25
MOUNT PLEASANT CLEAR     35  30  82 W10       29.81R WCI  27
MUSKEGON       PTCLDY    39  30  70 W15G23    29.90R WCI  31
SOUTH HAVEN    CLEAR     37  32  82 W8        29.95R WCI  31
$$
MIZ016>042-301200-
NORTHERN LOWER MICHIGAN

CITY           SKY/WX    TMP DP  RH WIND       PRES   REMARKS
ALPENA         PTCLDY    35  28  75 W12G22    29.69R WCI  27
BEAVER ISLAND  CLOUDY    33  31  93 W12       29.73R WCI  24
BELLAIRE       CLOUDY    36  30  79 SW3       29.76S
CADILLAC       CLEAR     32  29  89 W8        29.78R WCI  25
CHARLEVOIX     CLOUDY    35  31  88 W14       29.77R WCI  25
FRANKFORT      PTCLDY    38  29  71 NW7       29.81R WCI  32
GAYLORD        MOCLDY    32  30  92 W12       29.71R WCI  23
GRAYLING       CLEAR     32  29  88 W9        29.75R WCI  25
HARBOR SPRINGS CLOUDY    32  31  95 W6        29.73R WCI  27
HOUGHTON LAKE  CLEAR     33  29  85 W13G20    29.75R WCI  24
MANISTEE       CLEAR     36  27  69 W15       29.83S WCI  26
OSCODA         CLOUDY    37  30  78 W13G20    29.71R WCI  28
PELLSTON       CLOUDY    35  30  82 W10       29.72R WCI  27
ROGERS CITY    CLOUDY    35  31  88 W14G20    29.69R WCI  25
TRAVERSE CITY  PTCLDY    36  29  75 SW6       29.77S WCI  31
$$
MIZ007>008-015-301200-
EASTERN UPPER MICHIGAN

CITY           SKY/WX    TMP DP  RH WIND       PRES   REMARKS
KINROSS        CLOUDY    32  28  86 NW14G22   29.66R WCI  22
MACKINAC ISLAN CLOUDY    33  32  97 W8G16     29.69R WCI  26
NEWBERRY       LGT SNOW  32  31  94 W9        29.69R WCI  24
S. S. MARIE    PTCLDY    30  23  75 W20G25    29.64R WCI  17
$$
MIZ004>006-011>014-085-301200-
CENTRAL UPPER MICHIGAN

CITY           SKY/WX    TMP DP  RH WIND       PRES   REMARKS
MANISTIQUE     CLOUDY    33  31  91 NW9       29.73R WCI  25
ESCANABA       CLEAR     30  27  86 W8        29.75R WCI  23
MENOMINEE      CLEAR     36  25  64 W8G17     29.79R WCI  29
SAWYER-GWINN   FLURRIES  32  30  93 N6        29.74R WCI  26
$$
MIZ001>003-009>011-084-301200-
WESTERN UPPER MICHIGAN

CITY           SKY/WX    TMP DP  RH WIND       PRES   REMARKS
IRON MOUNTAIN  CLEAR     36  25  64 W14G21    29.75R WCI  27
HOUGHTON       CLEAR     30  26  85 NW16      29.76R WCI  19
COPPER HARBOR    N/A     31  25  78 N12       29.76R WCI  22
IRONWOOD       CLEAR     32  27  80 W9        29.83R WCI  24
$$

ABBREVIATIONS USED IN REMARKS
   TC - TEMPERATURE IN CELSIUS
  WCI - WIND CHILL INDEX
   HX - HEAT INDEX
  VSB - VISIBILITY



USA.gov is the U.S. government's official web portal to all federal, state and local government web resources and services.